Total_Precipitation_Accumulation
0.00 0.00 0.00 0.00 0.00 0.00 0.00 0.00 0.00 0.00 0.00 0.00 0.00 0.00 0.01 0.04 0.07 0.11 0.24 0.49 0.76 0.88 1.16 1.38 1.39 1.44 1.48 1.65 1.69 1.79 2.07 2.12 2.03 1.76 1.41 1.29 1.19 1.16 1.10 1.02 0.96 0.98 0.98 1.07
0.00 0.00 0.00 0.00 0.00 0.00 0.00 0.00 0.00 0.00 0.00 0.00 0.00 0.00 0.01 0.03 0.05 0.09 0.18 0.34 0.56 0.85 1.09 1.29 1.34 1.29 1.52 1.94 2.12 2.10 1.99 2.00 1.90 1.79 1.75 1.76 1.77 1.52 1.27 1.16 1.06 1.03 1.10 1.18
0.00 0.00 0.00 0.00 0.00 0.00 0.00 0.00 0.00 0.00 0.00 0.00 0.00 0.00 0.02 0.04 0.09 0.21 0.35 0.50 0.63 0.92 1.15 1.24 1.27 1.23 1.32 1.50 1.67 1.76 1.79 1.66 1.59 1.65 1.77 1.81 1.82 1.59 1.38 1.26 1.19 1.12 1.12 1.09
0.00 0.00 0.00 0.00 0.00 0.00 0.00 0.00 0.00 0.00 0.00 0.00 0.00 0.01 0.03 0.05 0.18 0.37 0.51 0.66 0.85 1.08 1.04 1.07 1.15 1.11 1.16 1.26 1.35 1.38 1.40 1.38 1.40 1.49 1.58 1.56 1.53 1.41 1.36 1.36 1.25 1.15 1.07 1.04
0.00 0.00 0.00 0.00 0.00 0.00 0.00 0.00 0.00 0.00 0.00 0.00 0.01 0.02 0.04 0.08 0.21 0.42 0.57 0.62 0.80 0.90 0.81 0.79 0.85 0.86 0.89 0.93 1.04 1.12 1.20 1.18 1.19 1.21 1.25 1.26 1.23 1.23 1.23 1.16 1.07 0.98 0.92 0.95
0.01 0.01 0.01 0.00 0.00 0.00 0.00 0.00 0.00 0.00 0.01 0.03 0.06 0.07 0.09 0.20 0.30 0.38 0.54 0.62 0.74 0.76 0.74 0.80 0.78 0.74 0.76 0.84 0.93 1.00 1.04 1.05 1.05 1.05 1.06 1.06 1.05 1.05 1.04 0.99 0.98 0.92 0.87 0.80
0.03 0.03 0.02 0.01 0.01 0.01 0.01 0.01 0.07 0.09 0.12 0.15 0.15 0.12 0.20 0.37 0.41 0.45 0.56 0.70 0.76 0.72 0.66 0.66 0.67 0.68 0.73 0.75 0.74 0.76 0.79 0.82 0.78 0.75 0.79 0.80 0.79 0.77 0.80 0.81 0.79 0.73 0.64 0.61
0.05 0.08 0.06 0.03 0.02 0.02 0.03 0.05 0.21 0.20 0.08 0.08 0.11 0.14 0.37 0.55 0.56 0.55 0.62 0.70 0.64 0.56 0.53 0.53 0.52 0.53 0.56 0.53 0.51 0.54 0.58 0.64 0.68 0.67 0.66 0.58 0.53 0.52 0.51 0.60 0.61 0.57 0.53 0.51
0.03 0.03 0.03 0.02 0.02 0.03 0.07 0.10 0.12 0.25 0.18 0.14 0.10 0.21 0.41 0.61 0.65 0.71 0.81 0.82 0.70 0.56 0.45 0.41 0.39 0.38 0.36 0.36 0.39 0.46 0.50 0.54 0.59 0.59 0.54 0.49 0.44 0.41 0.41 0.45 0.51 0.52 0.56 0.52
0.02 0.00 0.01 0.01 0.01 0.03 0.07 0.07 0.09 0.21 0.23 0.22 0.11 0.24 0.47 0.79 0.85 0.80 0.87 0.76 0.56 0.42 0.33 0.28 0.25 0.24 0.24 0.25 0.30 0.38 0.42 0.41 0.43 0.43 0.42 0.37 0.35 0.36 0.37 0.39 0.41 0.43 0.46 0.48
0.00 0.00 0.00 0.02 0.02 0.05 0.08 0.11 0.18 0.26 0.25 0.30 0.28 0.34 0.45 0.61 0.74 0.82 0.77 0.60 0.40 0.28 0.21 0.19 0.19 0.20 0.21 0.21 0.25 0.32 0.39 0.42 0.43 0.42 0.41 0.35 0.30 0.29 0.29 0.31 0.32 0.37 0.39 0.42
0.00 0.00 0.00 0.01 0.04 0.05 0.07 0.10 0.19 0.30 0.26 0.26 0.32 0.35 0.25 0.29 0.39 0.44 0.41 0.33 0.27 0.21 0.19 0.21 0.23 0.23 0.21 0.22 0.27 0.34 0.39 0.44 0.48 0.49 0.50 0.46 0.40 0.36 0.33 0.31 0.29 0.30 0.32 0.36
0.00 0.00 0.01 0.03 0.07 0.09 0.08 0.08 0.10 0.13 0.15 0.15 0.25 0.28 0.21 0.24 0.31 0.41 0.49 0.49 0.41 0.32 0.22 0.19 0.21 0.23 0.24 0.28 0.33 0.43 0.48 0.50 0.52 0.58 0.65 0.64 0.51 0.45 0.44 0.38 0.32 0.30 0.29 0.28
0.00 0.00 0.01 0.02 0.03 0.05 0.06 0.08 0.06 0.11 0.20 0.18 0.15 0.20 0.22 0.25 0.32 0.40 0.44 0.40 0.32 0.25 0.20 0.17 0.20 0.23 0.26 0.29 0.29 0.32 0.36 0.38 0.44 0.46 0.55 0.65 0.61 0.49 0.36 0.29 0.29 0.30 0.29 0.30
0.00 0.00 0.00 0.01 0.01 0.04 0.07 0.07 0.05 0.07 0.14 0.25 0.19 0.16 0.19 0.20 0.20 0.24 0.25 0.21 0.17 0.16 0.14 0.15 0.18 0.21 0.25 0.25 0.22 0.19 0.17 0.17 0.23 0.27 0.34 0.44 0.38 0.32 0.29 0.25 0.19 0.17 0.20 0.25
0.00 0.00 0.00 0.00 0.01 0.03 0.06 0.09 0.06 0.05 0.05 0.09 0.12 0.17 0.18 0.18 0.19 0.20 0.19 0.17 0.16 0.16 0.13 0.12 0.14 0.17 0.19 0.16 0.11 0.08 0.08 0.11 0.17 0.23 0.28 0.35 0.34 0.27 0.20 0.16 0.11 0.10 0.14 0.20
0.00 0.00 0.00 0.00 0.01 0.03 0.09 0.09 0.05 0.03 0.02 0.04 0.13 0.21 0.19 0.20 0.19 0.18 0.16 0.14 0.12 0.10 0.08 0.07 0.06 0.06 0.05 0.05 0.04 0.05 0.05 0.06 0.14 0.23 0.31 0.35 0.39 0.39 0.27 0.14 0.10 0.12 0.16 0.21
0.01 0.01 0.00 0.00 0.02 0.12 0.10 0.03 0.02 0.02 0.02 0.03 0.06 0.09 0.10 0.09 0.07 0.06 0.06 0.05 0.03 0.03 0.03 0.03 0.02 0.02 0.02 0.02 0.04 0.07 0.06 0.07 0.12 0.21 0.28 0.30 0.34 0.34 0.29 0.22 0.19 0.20 0.24 0.29
0.01 0.01 0.01 0.01 0.02 0.08 0.04 0.02 0.02 0.04 0.04 0.03 0.03 0.04 0.04 0.04 0.04 0.06 0.03 0.02 0.01 0.01 0.01 0.01 0.01 0.01 0.02 0.02 0.05 0.10 0.11 0.14 0.18 0.26 0.34 0.34 0.34 0.33 0.26 0.23 0.24 0.26 0.29 0.31
0.01 0.00 0.01 0.01 0.02 0.07 0.05 0.04 0.06 0.04 0.11 0.08 0.05 0.04 0.03 0.02 0.08 0.10 0.04 0.01 0.01 0.01 0.01 0.02 0.02 0.02 0.04 0.06 0.09 0.14 0.20 0.24 0.30 0.38 0.43 0.41 0.42 0.42 0.36 0.36 0.35 0.33 0.34 0.31
0.00 0.01 0.01 0.01 0.03 0.04 0.02 0.04 0.04 0.08 0.15 0.04 0.02 0.01 0.01 0.02 0.05 0.05 0.02 0.01 0.01 0.01 0.02 0.03 0.04 0.04 0.06 0.08 0.12 0.21 0.25 0.28 0.31 0.33 0.40 0.45 0.49 0.53 0.56 0.57 0.52 0.45 0.41 0.39
0.01 0.01 0.02 0.03 0.07 0.09 0.02 0.01 0.01 0.04 0.02 0.01 0.01 0.01 0.02 0.02 0.01 0.01 0.01 0.01 0.01 0.02 0.03 0.04 0.06 0.05 0.07 0.09 0.15 0.21 0.24 0.26 0.29 0.33 0.40 0.47 0.51 0.50 0.56 0.74 0.73 0.70 0.65 0.54
0.00 0.01 0.02 0.02 0.04 0.02 0.00 0.00 0.01 0.01 0.01 0.02 0.02 0.01 0.02 0.02 0.02 0.02 0.02 0.02 0.02 0.02 0.03 0.05 0.09 0.10 0.12 0.15 0.25 0.34 0.31 0.31 0.36 0.41 0.47 0.50 0.50 0.54 0.63 0.71 0.75 0.77 0.72 0.63
0.00 0.01 0.01 0.03 0.01 0.00 0.01 0.01 0.01 0.01 0.01 0.01 0.01 0.01 0.02 0.03 0.03 0.03 0.03 0.03 0.04 0.04 0.06 0.09 0.13 0.19 0.27 0.31 0.37 0.44 0.40 0.41 0.44 0.46 0.49 0.52 0.54 0.55 0.59 0.72 0.74 0.71 0.66 0.65
0.00 0.00 0.01 0.03 0.02 0.01 0.01 0.02 0.01 0.00 0.01 0.01 0.01 0.02 0.02 0.03 0.04 0.04 0.04 0.05 0.05 0.06 0.07 0.13 0.20 0.28 0.35 0.43 0.49 0.51 0.52 0.56 0.57 0.54 0.51 0.54 0.56 0.58 0.63 0.70 0.76 0.74 0.69 0.63
0.01 0.02 0.03 0.04 0.04 0.05 0.05 0.03 0.01 0.01 0.01 0.01 0.02 0.02 0.03 0.04 0.05 0.04 0.05 0.05 0.05 0.06 0.08 0.13 0.19 0.28 0.36 0.45 0.51 0.54 0.62 0.72 0.77 0.76 0.67 0.65 0.67 0.68 0.73 0.73 0.65 0.57 0.55 0.46